GSAT0222 (GALILEO 26)

Last updated on Thu Oct 30 2025 00:02:36 GMT+0000 (Coordinated Universal Time)

1 43565U 18060B 25301.58309846 -.00000067 00000+0 00000+0 0 9994 2 43565 57.2415 348.0420 0005879 250.4387 109.5628 1.70475804 45262
UTC large
Height (km)
Speed (km/s)
/
Latitude / Longitude
Inclination (degrees)
Orbital Period (minutes)
Azimuth
Elevation
Range (km)
Doppler Factor

Next 0 passes for location: London (51.5072 / 0.1276)

Sorry there are no passes over London.